Regional Weather Roundup
Issued by NWS Charleston, SC

Current Version | Previous Version | Graphics & Text | Print | Product List | Glossary On
Versions: 1 2 3 4 5 6 7 8 9 10 11 12 13 14 15 16 17 18 19 20 21 22 23 24 25 26 27 28 29 30 31 32 33 34 35 36 37 38 39 40 41 42 43 44 45 46 47 48 49 50
000
ASUS42 KCHS 031912
RWRCHS

REGIONAL WEATHER ROUNDUP
NATIONAL WEATHER SERVICE CHARLESTON SC
300 PM EDT SUN MAY 03 2015

NOTE: "FAIR" INDICATES FEW OR NO CLOUDS BELOW 12,000 FEET WITH NO
SIGNIFICANT WEATHER AND/OR OBSTRUCTIONS TO VISIBILITY.

NOT ALL STATIONS ARE QUALITY CONTROLLED BY THE NATIONAL
WEATHER SERVICE. USE DATA WITH CAUTION...ESPECIALLY
DEWPOINT OBSERVATIONS.

SCZ027-030-031-034>040-042>050-032000-
...SOUTHEAST SOUTH CAROLINA...

CITY           SKY/WX    TMP DP  RH WIND       PRES   REMARKS
N CHARLESTON   MOSUNNY   78  47  33 CALM      30.17F
WATERFRONT PRK   N/A     75 N/A N/A SE9         N/A
MOUNT PLEASANT FAIR      75  57  53 MISG      30.17F
PINOPOLIS      NOT AVBL
MONCKS CORNER  FAIR      81  45  28 CALM      30.17F
SUMMERVILLE    FAIR      81  48  32 W3        30.18S
BEAUFORT MCAS  SUNNY     80  50  34 E5        30.18F
BEAUFORT ARPT  MOCLDY    79  54  41 W5        30.18S
HILTON HEAD IS MOSUNNY   77  59  53 SE6       30.20S
WALTERBORO     PTCLDY    77  46  33 CALM      30.18F
ALLENDALE      FAIR      79  48  34 SE3       30.17S

...SOUTHERN MIDLANDS AND PEE DEE...

CITY           SKY/WX    TMP DP  RH WIND       PRES   REMARKS
GEORGETOWN     NOT AVBL
KINGSTREE      NOT AVBL
ORANGEBURG     PTSUNNY   80  48  32 CALM      30.17F
BARNWELL       FAIR      82  48  30 SW5       30.17F
AIKEN          FAIR      79  43  27 SE3       30.20F
MANNING        FAIR      79  43  27 SW8       30.17F
COLUMBIA       MOSUNNY   79  46  31 S5        30.16F
SUMTER         SUNNY     80  45  29 VRB1      30.16S
FLORENCE       SUNNY     80  43  26 S8        30.17F
MYRTLE BEACH   MOSUNNY   73  61  64 SE14      30.22S
N MYRTLE BEACH SUNNY     73  59  61 S10       30.20S

$$

GAZ063-065-086>088-099>101-113>116-118-119-134>141-150-032000-
...SOUTHEAST GEORGIA...

CITY           SKY/WX    TMP DP  RH WIND       PRES   REMARKS
SAVANNAH ARPT  MOSUNNY   78  45  30 E3        30.18F
HUNTER AAF     PTSUNNY   79  50  35 NE5       30.16S
FORT STEWART   MOSUNNY   81  50  34 S8        30.16S
STATESBORO       N/A     79  50  35 S6        30.18S
SYLVANIA       MOCLDY    80  52  37 CALM      30.18F
CLAXTON        FAIR      79  52  38 W3        30.17F

...CSRA...CENTRAL AND FAR SOUTHEAST GEORGIA...

CITY           SKY/WX    TMP DP  RH WIND       PRES   REMARKS
THOMSON        SUNNY     82  52  34 CALM      30.21F
AUGUSTA-BUSH   PTSUNNY   77  48  35 SE6       30.16F
AUGUSTA-DANIEL PTSUNNY   81  48  31 VRB7      30.17F
SWAINSBORO     NOT AVBL
VIDALIA        SUNNY     79  52  38 SE6       30.18S
EASTMAN        MOCLDY    78  51  38 CALM      30.20S
HAZLEHURST     FAIR      80  50  34 E3        30.17S
ALMA           MOSUNNY   81  48  31 VRB5      30.17F
WAYCROSS       MOSUNNY   82  51  34 E3        30.17F
JESUP          FAIR      82  52  34 CALM      30.17F
BAXLEY         FAIR      81  48  32 CALM      30.17F
BRUNSWICK      SUNNY     81  41  24 SE9G16    30.19S
SAINT SIMONS   SUNNY     78  48  34 VRB7      30.19F

$$

SCZ027-028-034-036>038-045-046-048>050-GAZ119-141-032000-
...LAKE AND SUPPLEMENTAL COASTAL OBSERVATIONS...

STATION/POSITION TIME  TEMP    WIND        PRES    WAVE   SWELL
                       AIR SEA DIR/SP/G            HT/PER HT/PER/DIR
                 (UTC) (F)     (DEG/KT/KT) (MB)    (FT/S) (FT/S/D)
UPR LAKE MARION  NOT AVBL
WINYAH BAY       NOT AVBL
LAKE MURRAY      1800   80     150/  1/  2 1021.3F
ACE BASIN NERRS  NOT AVBL
FORT PULASKI     1806   75 69  150/  6/  8 1022.8
SAPELO ISLAND    1800   81     150/  6     1022.0F

$$

ANZ835-935-AMZ111-154-330-350-352-354-370-450-454-472-032000-
...C-MAN AND BUOY OBSERVATIONS...

STATION/POSITION TIME  TEMP    WIND        PRES    WAVE   SWELL
                       AIR SEA DIR/SP/G            HT/PER HT/PER/DIR
                 (UTC) (F)     (DEG/KT/KT) (MB)    (FT/S) (FT/S/D)
BUOY 41004       1850   70 76  320/  2/  4 1022.5F   3/11   3/11
BUOY 41008       1850   71 74  130/  2/  4 1023.0F   3/13   3/ 80/13
FOLLY BEACH CMAN 1900   72     190/ 10/ 12 1022.2F
CAPERS NEARSHORE 1808   69     170/  8/  8 1022.5F
FRIPP NEARSHORE  1800   73     180/  8/  8 1022.3F


STATION/POSITION TIME  TEMP    WIND        PRES    WAVE   SWELL
                       AIR SEA DIR/SP/G            HT/PER HT/PER/DIR
                 (UTC) (F)     (DEG/KT/KT) (MB)    (FT/S) (FT/S/D)
5E ST. MARYS GA  1821      76                N/A     2/14   2/100/14
FRYING PAN BUOY  1850   72 75   CALM  /  2 1023.6F   4/10   3/110/10
BUOY 41025       1850   63 62  260/  6/  8 1022.3F   5/11   5/ 50/11
CAPE LOOKOUT NC  1900   71     230/ 10/ 12 1021.9F
BUOY 41002       1850   69 70   10/ 16/ 17 1022.4S   8/11   7/ 20/11
BUOY 41010       1820   73 78   50/ 10/ 14 1022.2F
ST AUGUSTINE FL  1900   72 73  130/  6/  7 1023.0F


$$


USA.gov is the U.S. government's official web portal to all federal, state and local government web resources and services.